STARLINK-3858, 52553

Orbit data source: Space-Track

STARLINK-3858, 52553 is a payload satellite owned by SpaceX/Seattle (US) in LEO that was launched on Fri, 13 May 2022 UTC via an FALCON 9 launch vehicle from the Air Force Western Test Range (AFWTR). Payload-class satellites include a variety of spacecraft equipped with specific instruments for various scientific and technological missions. These include communications satellites like Starlink; space stations such as the ISS; scientific satellites like the Hubble; Earth observation satellites from companies like Planet Labs, Umbra, and HawkEye 360; GPS; miniature CubeSats for education and research; and military/defense satellites.

Not visible in the next 10 days
Identifier
52553, 2022-051W
Orbit
LEO
Country
Flag of USUS
Related business
Manufacturer
SpaceX/Seattle
Mission
Partially operational Commercial Communications
Bus & Motor
STARLINK, Unknown motor
Mass
297 kg wet, ~275 kg dry
Launch date (UTC)
2022-05-13 (4 years ago)
Launch vehicle
FALCON 9
Launch site
Air Force Western Test Range (AFWTR)
Object type
Payload
Rocket body
Debris
Shape & HBR
Box + 1 Pan, 10.1 m
Radar Cross Section
13.562 m², Large (>1 m²)

Expand to show TLE details & history
Last TLE update: 11 hours ago

TLE from 11 hours ago
0 STARLINK-3858
1 52553U 22051W   26172.97577025  .00525762  15197-3  55699-3 0  9990
2 52553  53.2170 359.3697 0000511 331.2329  28.8678 16.09693831227491
Epoch: 2026-06-21T23:25Z
TLE epoch observation values (Epoch: 2026-06-21T23:25:06.549Z)
Latitude
-0.00008°
Longitude
97.92403°
Altitude
248.324 km
Speed
7.759 km/s
True Right ascension
23h 57m 28s
True Declination
0° 00' 00"
Sunlit
Object was in daylight at epoch
Visualization orbit readout
Latitude
Unknown
Longitude
Unknown
Altitude
Unknown
Speed
Unknown
Apparent Right ascension
Unknown
Apparent Declination
Unknown
Sunlit
N/A
Visualization observer readout
Local Sidereal Time
21:33:00
Azimuth
Unknown
Elevation
Unknown
Doppler factor
Unknown
Orbital elements
Apogee altitude
248.277 km
Perigee altitude
247.6 km
Semi-major axis
6,626.076 km
Eccentricity
0.00005
Inclination
53.217°
RAAN
359.3697°
Arg. of periapsis
331.2329°
True anomaly
28.87063°
Mean anomaly
28.8678°
Eccentric anomaly
28.86921°
Mean motion
4.02401 °/min
Orbital period
89.46 mins
BSTAR
0.00055699
Loading maneuver chart data...
Computing Atmospheric mass density...
Loading historical data...
Loading historical data...
Loading historical data...
Loading historical data...
Loading historical data...
Loading historical data...
Loading historical data...

Documentation

Showing up to 5 results
|